Regional Weather Roundup
Issued by NWS

Home | Current Version | Previous Version | Text Only | Print | Product List | Glossary Off
Versions: 1 2 3 4 5 6 7 8 9 10 11 12 13 14 15 16 17 18 19 20 21 22 23 24 25 26 27 28 29 30 31 32 33 34 35 36 37 38 39 40 41 42 43 44 45 46 47 48 49 50

000
ASUS45 KCYS 032010
RWRWY

WYOMING REGIONAL WEATHER ROUNDUP
NATIONAL WEATHER SERVICE CHEYENNE WY
100 PM MST SAT DEC 03 2016

NOTE:  "FAIR" INDICATES FEW OR NO CLOUDS BELOW 12,000 FEET
WITH NO SIGNIFICANT WEATHER AND/OR OBSTRUCTIONS TO VISIBILITY.

WYZ001-032100-
YELLOWSTONE NATIONAL PARK

CITY           SKY/WX    TMP DP  RH WIND       PRES   REMARKS
LK YELLOWSTONE   N/A     18  13  80 VRB3      30.04F
W YELLOWSTONE  NOT AVBL

$$
WYZ002>013-054>058-071-098>099-032100-
NORTHERN WYOMING

CITY           SKY/WX    TMP DP  RH WIND       PRES   REMARKS
JACKSON        CLOUDY    25  19  80 S14       30.09F WCI  13
CODY           FAIR      38  10  31 W25G38    29.92F WCI  27
GREYBULL       FAIR      37  15  40 S9        29.96F WCI  30
WORLAND        FAIR      38  15  39 SE7       29.96F WCI  33
SHERIDAN       CLOUDY    44  23  43 VRB6      29.88F
BUFFALO        FAIR      40  19  43 S9        29.89F WCI  34
GILLETTE       CLOUDY    36  23  59 NW17G25   29.89F WCI  26
HULETT         CLOUDY    32  23  69 SW10G17   29.88S WCI  24
NEWCASTLE      FAIR      32  18  55 N3        29.92F

$$
WYZ014>020-022>026-101>103-032100-
CENTRAL WYOMING

CITY           SKY/WX    TMP DP  RH WIND       PRES   REMARKS
BIG PINEY      CLOUDY    31  14  49 N17G31    30.05F WCI  19
PINEDALE       FAIR      27  14  59 MISG      30.06F
DUBOIS         CLOUDY    28   9  43 W26G35    29.97F WCI  13
LANDER         FAIR      34  10  37 NW5       29.95F WCI  30
RIVERTON       FAIR      39  10  30 NW31G45   29.94F WCI  27
CASPER         PTSUNNY   35  13  40 SW25G33   29.94F WCI  23
DOUGLAS        FAIR      39  13  34 W18       29.92F WCI  30

$$
WYZ021-027>030-104>119-032100-
SOUTHERN WYOMING

CITY           SKY/WX    TMP DP  RH WIND       PRES   REMARKS
EVANSTON       PTSUNNY   26  13  57 W18G28    30.15F WCI  13
FORT BRIDGER   CLOUDY    28  17  63 W28G36    30.14F WCI  13
ROCK SPRINGS   PTSUNNY   25  14  63 W24G30    30.09R WCI   9
DIXON          CLOUDY    28  14  54 SW9       30.13F WCI  20
RAWLINS        CLOUDY    25  12  58 SW21G31   30.02F WCI  11
SARATOGA       CLOUDY    27  12  54 SW18G24   30.04F WCI  13
LARAMIE        CLOUDY    27   7  42 W24G30    29.95S WCI  12
CHEYENNE       FAIR      34   8  33 W28G36    29.92F WCI  21
TORRINGTON     FAIR      42  10  27 W20       29.93F
PINE BLUFFS    FAIR      37   9  30 W17G28    29.95F WCI  28

$$



USA.gov is the U.S. government's official web portal to all federal, state and local government web resources and services.